ECMWFFLT2_925_thetae_021.txt.gz
Theta_e
336 336 336 335 336 335 335 336 337 338 338 338 338 338 337 336 335 334 333 332 331 329 328 326 325 325 325 324 324 324 324 324 323 323 319 306 298 298 298 299 299 299 299 299 299 299 299 299 298 299 298 299
336 336 336 336 336 335 335 336 337 337 338 338 337 337 336 335 334 333 331 331 330 329 328 326 324 324 324 324 324 324 324 323 323 322 314 302 298 298 298 298 298 298 299 299 298 299 298 298 298 297 298 298
336 336 335 335 336 335 336 336 337 337 338 337 336 336 335 334 332 330 330 330 330 328 327 325 323 323 324 324 323 323 323 323 323 319 308 300 298 298 298 298 298 299 299 299 299 299 298 298 298 297 298 297
337 336 335 334 335 336 336 336 336 337 337 336 335 334 333 332 330 328 329 330 329 327 327 325 322 322 323 323 323 323 322 322 322 315 303 299 298 298 299 299 299 299 300 300 300 299 299 298 298 297 297 296
336 336 335 334 335 336 337 336 337 337 336 335 333 331 331 332 330 328 328 328 328 326 326 325 322 321 322 323 322 322 321 321 319 310 300 299 298 298 298 299 299 300 300 300 300 300 299 299 298 297 297 297
335 335 335 335 335 336 337 336 336 336 335 333 332 331 331 331 329 328 328 327 326 326 325 324 321 319 320 321 322 321 321 321 317 306 298 298 298 299 298 298 299 300 300 300 300 300 299 298 298 297 297 297
334 334 335 335 335 335 336 336 335 335 334 333 332 331 330 329 328 328 328 327 326 325 325 323 319 317 317 320 322 320 320 320 316 304 298 298 298 298 298 298 300 300 300 300 300 300 299 299 298 298 297 296
334 334 334 334 333 333 334 334 334 334 333 332 331 330 329 329 329 328 328 327 326 325 324 321 318 316 315 320 322 319 319 318 313 303 298 298 297 298 298 299 299 300 300 300 300 300 299 299 298 298 297 296
334 333 333 333 333 333 333 332 332 332 332 331 330 330 329 329 328 328 327 326 325 324 323 321 318 316 316 320 321 318 318 316 309 301 297 297 297 297 297 298 299 299 300 299 299 299 299 299 298 297 297 296
334 333 333 333 332 333 332 332 332 331 331 331 329 330 329 328 328 327 327 325 324 323 322 321 319 318 318 320 320 317 316 315 308 300 298 297 297 297 297 298 299 299 299 299 299 299 299 298 298 297 296 296
333 333 333 333 332 332 333 332 332 331 331 331 330 330 329 328 328 327 326 324 323 322 321 320 320 319 319 320 320 316 316 317 311 303 299 297 296 297 297 298 299 299 299 299 299 299 298 297 297 296 296 296
333 333 332 332 332 332 332 332 332 331 331 330 330 329 329 328 327 326 326 324 323 322 320 320 320 319 319 320 320 317 316 317 312 304 298 296 296 297 297 298 298 299 299 299 298 298 297 297 296 296 295 295
332 332 331 331 332 331 331 332 332 331 330 330 329 328 328 327 326 326 326 324 323 321 320 320 320 319 320 320 320 317 316 314 309 303 298 296 297 297 297 298 298 298 298 298 298 297 297 296 295 295 295 295
331 331 331 331 331 331 330 330 331 330 329 329 328 327 327 327 326 326 325 324 322 321 319 319 319 319 319 319 317 315 313 310 306 301 298 297 296 296 297 297 298 298 297 297 297 297 296 295 295 294 294 294
330 331 330 330 330 330 330 329 330 330 330 329 327 327 327 326 326 326 325 323 322 320 318 318 318 317 317 316 315 312 310 307 304 300 298 297 296 296 297 297 298 297 297 297 296 296 295 294 294 294 294 294
328 329 329 329 329 330 330 329 329 329 329 329 327 326 326 325 325 325 324 323 321 319 317 316 316 315 315 314 312 310 308 305 302 300 298 297 297 297 297 297 298 297 296 296 295 295 294 293 293 294 294 294
327 328 328 328 329 329 330 329 329 329 329 328 327 326 324 324 324 324 324 323 321 319 316 315 314 313 312 311 310 308 306 304 301 299 298 297 297 297 297 297 298 296 296 295 294 294 293 293 293 293 294 294
327 327 328 328 328 329 329 329 328 328 328 327 326 325 324 323 323 324 324 323 321 319 316 313 312 311 310 309 308 307 305 303 301 299 297 296 296 297 297 297 297 296 296 295 294 294 293 294 294 293 294 294
326 327 327 327 327 328 328 328 328 328 327 327 326 324 323 322 322 323 323 322 321 319 316 313 311 310 309 308 307 306 304 302 300 298 297 296 296 296 296 297 296 295 296 295 294 293 293 294 293 294 294 294
325 326 326 326 327 327 327 327 327 327 326 326 325 323 323 322 322 322 322 322 321 319 317 313 311 309 308 307 305 304 303 301 300 298 296 295 296 296 296 297 295 296 296 296 295 294 295 295 294 295 295 294
325 325 325 325 325 325 326 326 326 326 325 325 324 323 322 321 321 322 322 322 320 319 317 314 311 309 307 306 304 303 302 301 300 298 297 295 296 296 297 297 296 296 297 297 295 295 296 295 295 296 296 295
324 324 324 324 324 324 324 324 325 324 324 323 323 322 321 320 320 320 321 321 320 319 317 314 311 308 307 305 304 303 301 300 299 298 297 296 296 296 297 297 296 297 298 297 296 295 295 295 296 297 296 295
323 323 323 323 323 323 322 323 323 323 322 322 321 321 320 319 319 319 319 319 319 319 317 314 311 308 306 305 303 302 301 300 299 298 297 296 296 297 297 297 296 297 297 296 295 296 295 295 296 297 295 295
321 322 322 322 321 321 321 321 320 321 321 320 320 319 318 318 317 317 318 318 318 317 317 314 311 308 306 304 303 301 300 299 298 298 297 297 296 297 297 297 297 297 297 295 295 296 295 295 295 295 295 295
320 320 320 320 320 320 320 319 319 319 319 319 318 317 316 316 316 316 316 316 316 316 315 313 310 307 305 304 302 300 299 298 298 298 297 297 296 296 297 297 297 297 296 295 296 296 295 295 294 293 294 294
318 318 318 319 319 319 319 318 318 318 317 317 316 315 314 314 314 314 314 314 315 315 314 312 310 307 305 304 301 300 299 298 298 297 297 297 296 296 296 297 297 296 296 296 297 297 296 295 294 293 293 294
315 316 317 317 317 317 317 317 316 315 315 314 314 313 312 313 313 313 313 313 313 313 313 312 310 306 304 304 301 299 298 298 298 297 297 297 296 296 296 297 297 296 295 297 298 298 297 297 296 294 293 293
312 314 315 315 314 314 314 313 312 312 312 311 311 310 310 311 311 311 311 311 312 312 312 311 310 307 305 304 302 299 298 298 297 297 296 296 296 296 296 296 297 296 295 297 299 298 298 298 297 298 296 294
309 311 312 312 311 310 311 310 309 309 309 309 309 309 309 309 309 309 310 310 310 310 310 310 309 307 305 304 302 299 298 297 297 296 296 296 296 296 296 296 296 296 295 296 299 299 300 300 298 300 299 295
307 308 309 309 310 309 310 310 310 309 309 309 308 308 308 307 307 307 308 308 308 308 308 308 308 306 305 304 302 300 298 297 297 297 296 296 296 296 296 296 296 296 295 296 299 299 301 301 301 301 298 297
305 306 307 307 308 308 308 308 309 308 308 307 307 306 306 306 305 305 305 306 306 306 306 307 307 306 305 303 302 300 298 297 297 297 296 296 296 296 296 296 296 296 295 295 298 299 300 300 301 301 298 299

ECMWFFLT2_925_thetae_024.txt.gz
Theta_e
340 339 339 339 339 339 338 337 336 336 335 336 337 337 338 338 338 338 336 335 335 333 331 330 329 327 326 326 326 325 325 324 324 324 325 322 311 300 298 299 299 299 299 299 300 299 300 299 299 299 300 302
339 339 339 338 338 338 337 336 336 336 336 337 338 337 338 338 338 337 336 335 333 332 331 330 328 327 325 325 325 324 324 324 324 323 324 320 307 299 299 298 299 299 299 300 300 300 300 299 299 299 299 299
339 339 338 337 337 337 336 335 335 336 336 338 338 337 338 338 337 336 335 334 333 332 331 329 328 327 324 323 325 324 324 323 323 323 322 316 303 298 299 298 299 298 299 299 299 299 299 299 299 298 298 298
339 339 338 337 336 337 336 335 335 336 337 338 337 337 338 338 336 336 335 333 332 331 330 329 327 327 323 321 324 324 323 323 323 323 321 313 301 298 299 298 299 298 299 298 298 299 298 299 298 298 298 297
339 338 337 336 336 336 335 335 335 336 337 337 337 338 338 337 336 335 334 332 331 330 329 329 327 327 323 318 322 324 323 323 323 321 320 313 300 298 298 298 298 298 298 298 298 298 298 298 297 297 297 297
338 337 336 336 335 336 336 336 336 337 337 337 338 337 337 336 335 334 333 331 329 329 329 328 327 327 324 315 318 324 323 323 322 320 320 313 299 297 298 297 298 298 298 298 298 298 298 298 297 297 297 296
337 337 336 335 335 335 335 335 335 336 337 337 337 337 336 334 333 333 331 330 328 329 328 328 327 326 325 316 316 323 322 322 321 320 320 313 299 297 298 297 298 298 298 299 298 298 298 297 296 296 297 296
336 336 336 335 335 335 334 334 335 336 336 337 337 336 335 333 332 331 330 329 328 328 327 327 326 325 325 316 315 322 321 321 320 319 320 314 300 297 297 297 298 298 298 299 299 299 298 297 297 296 296 296
335 336 335 335 335 335 334 334 335 336 336 337 336 335 335 332 331 330 329 328 328 327 326 326 325 324 324 315 315 322 320 320 320 318 318 312 298 297 297 297 298 298 299 299 298 299 298 297 298 297 296 296
335 335 335 335 335 335 335 335 335 336 336 336 335 334 333 332 331 330 329 328 328 327 326 326 324 324 322 314 314 322 320 318 318 318 315 306 297 297 296 297 298 298 298 299 299 299 298 298 298 297 297 296
335 335 334 335 335 335 335 335 335 335 335 335 335 334 333 332 331 329 329 328 328 327 326 325 324 323 320 313 315 321 320 316 316 316 311 302 298 297 296 297 297 298 299 299 299 299 298 298 298 297 297 296
335 335 334 334 334 334 333 334 334 333 333 333 334 333 332 331 330 329 329 328 327 326 325 325 323 322 318 313 315 320 320 317 315 314 310 302 298 297 296 297 297 298 299 299 299 299 299 298 298 298 297 296
334 334 334 333 333 333 333 332 333 333 332 332 332 332 331 330 329 329 328 328 327 326 325 324 322 320 316 315 317 319 319 317 316 314 310 303 298 296 297 298 298 298 298 299 300 300 300 299 298 298 298 297
333 333 333 333 332 333 332 332 332 332 332 331 331 331 330 330 329 328 328 327 326 325 324 322 320 318 316 316 318 318 316 316 316 314 310 305 299 296 297 298 298 298 298 299 300 300 300 299 299 298 298 297
333 333 333 332 332 332 332 332 332 332 332 331 331 331 330 330 329 328 328 327 326 325 323 321 319 318 317 316 318 318 316 315 316 315 310 304 299 297 297 297 297 297 298 299 300 300 299 299 298 297 297 297
332 332 332 332 332 331 331 331 332 332 332 331 331 330 330 329 328 328 327 326 326 325 323 321 319 318 317 317 319 319 317 315 316 314 309 303 299 298 297 297 297 297 297 298 299 299 298 297 297 297 297 296
330 331 331 331 331 331 330 331 331 331 331 331 330 330 329 329 328 327 327 326 326 324 323 321 319 318 318 318 319 319 317 315 314 311 307 302 299 298 297 297 297 297 297 297 298 298 297 296 296 296 296 296
329 330 330 330 331 330 330 330 330 330 330 330 330 329 329 328 327 327 326 326 325 324 323 321 319 318 317 318 318 317 316 314 312 308 304 301 299 298 298 298 298 297 297 297 297 297 296 295 295 295 295 296
328 328 329 329 330 330 329 330 330 330 329 329 329 329 328 327 327 327 326 326 325 324 322 321 319 317 316 316 316 315 314 312 310 306 302 300 299 299 299 299 298 297 297 297 297 297 295 295 295 294 294 296
327 327 328 328 328 328 329 329 329 329 329 329 329 328 328 327 326 326 326 326 325 323 322 320 319 317 315 314 314 313 312 310 308 305 302 300 299 298 299 299 298 297 297 297 297 296 295 294 295 295 295 295
326 326 327 327 327 328 328 328 329 329 328 328 328 328 327 326 326 325 325 325 324 323 322 320 318 316 315 313 312 311 310 309 307 305 302 300 299 298 298 298 298 297 297 297 297 296 295 295 295 295 296 295
325 325 326 326 326 326 327 327 328 328 328 327 327 327 326 326 325 324 324 324 323 322 321 320 318 316 314 312 311 310 309 308 306 304 302 300 299 298 297 298 297 297 297 297 296 296 296 296 295 296 296 296
324 324 325 325 325 325 325 326 327 326 326 326 326 326 325 324 323 323 323 323 322 321 320 319 317 316 314 312 311 309 308 306 305 303 301 300 298 297 297 297 297 297 297 297 297 296 296 296 295 296 296 296
322 323 323 324 323 323 323 324 324 325 325 324 324 324 323 322 322 321 322 322 322 321 320 319 317 315 313 311 310 308 307 305 304 303 301 299 298 297 297 298 297 297 297 297 297 296 296 296 296 296 296 295
321 321 322 322 322 322 322 322 322 322 323 323 322 322 321 321 320 320 320 320 320 320 319 318 317 315 313 311 309 308 307 305 304 302 301 299 298 297 297 298 298 297 297 297 296 296 295 295 295 296 296 295
317 318 319 319 319 320 320 319 320 319 320 320 320 319 319 319 318 318 318 319 319 319 319 318 317 315 314 311 309 308 307 305 303 302 300 299 298 297 297 298 298 297 297 297 296 295 295 295 294 294 294 294
313 315 316 316 317 317 318 318 317 318 317 318 318 318 317 317 316 316 316 316 317 317 318 317 316 315 314 312 309 308 306 304 303 301 300 299 298 298 297 298 297 298 297 296 296 295 297 298 296 295 293 293
310 312 313 313 313 313 314 314 314 314 313 313 314 315 315 314 314 313 314 314 314 315 316 316 316 315 313 311 309 308 307 305 303 301 300 299 299 298 298 298 297 298 297 296 297 296 298 298 298 301 297 292
307 308 309 309 309 310 310 310 310 310 310 310 310 310 311 311 310 311 311 312 312 312 313 314 315 314 312 311 309 308 307 305 304 302 300 299 299 298 298 298 298 298 297 296 297 297 299 299 299 305 299 293
306 306 307 307 307 307 308 308 308 308 308 308 308 308 308 308 308 308 308 309 309 310 310 311 312 312 312 310 308 307 306 305 304 302 300 299 299 298 297 297 297 298 297 296 296 296 299 300 301 302 298 296
304 305 305 305 306 306 306 306 306 306 306 306 306 306 306 306 306 305 305 306 307 307 308 308 309 310 310 309 307 306 305 305 303 302 301 299 298 298 297 296 296 297 297 296 296 297 298 299 301 300 298 299

ECMWFFLT2_925_thetae_030.txt.gz
Theta_e
337 337 337 337 336 336 334 334 335 334 334 333 333 335 336 337 337 337 338 338 337 336 335 334 333 332 332 331 329 328 330 330 327 326 325 325 322 311 302 298 298 298 298 299 299 300 300 300 301 302 302 303
337 337 337 337 336 335 335 335 334 333 331 331 332 334 335 335 336 337 338 338 337 337 335 334 333 333 332 329 328 326 328 328 326 325 325 325 321 312 302 298 298 298 298 299 299 300 300 300 300 301 302 302
337 337 337 337 336 335 335 335 334 332 332 332 333 334 335 334 335 336 338 338 337 336 335 334 333 333 331 329 328 326 326 327 325 325 325 324 320 311 300 297 298 298 299 299 299 299 299 300 300 301 301 302
338 338 338 337 337 336 335 335 334 334 334 334 334 334 335 334 335 336 337 338 337 337 336 335 334 333 331 329 328 326 325 326 325 325 324 323 319 308 299 298 298 298 299 299 299 299 299 300 300 300 301 301
339 338 338 338 337 337 336 336 335 335 335 335 335 334 335 334 335 336 337 337 337 337 336 335 334 332 331 329 328 326 324 324 325 324 324 323 318 306 299 298 298 298 299 299 299 299 300 300 300 300 300 300
339 339 338 338 338 337 336 336 336 336 336 335 335 334 334 334 335 336 337 337 337 337 336 335 334 332 330 329 328 326 324 323 323 324 323 322 317 305 299 298 298 298 299 299 300 300 300 300 300 300 300 299
339 339 339 338 338 338 337 337 336 337 336 336 335 335 335 334 335 336 336 336 337 337 336 335 334 332 330 330 328 326 324 322 322 323 322 320 313 302 298 298 298 298 299 300 299 300 300 300 300 299 300 299
339 338 338 338 338 338 338 337 337 337 337 336 336 335 335 335 335 336 336 336 336 336 336 335 333 332 331 330 328 326 325 321 321 322 322 319 311 299 299 298 298 299 299 300 299 300 300 300 300 299 299 298
338 338 338 338 337 337 338 338 338 337 338 337 336 336 335 335 335 336 337 336 336 336 335 334 332 331 330 330 328 326 325 321 319 320 321 318 310 299 298 298 298 298 299 300 300 300 300 299 299 299 299 298
336 337 337 337 336 336 337 338 338 338 338 337 337 336 335 335 336 335 336 336 336 335 335 334 332 331 330 329 328 326 325 322 319 319 319 316 309 301 298 298 297 298 298 299 299 300 300 299 299 299 298 298
335 335 336 336 336 336 336 338 338 338 337 337 336 336 335 335 336 335 336 337 336 335 334 333 332 331 330 329 328 326 325 324 320 317 316 315 310 303 299 298 297 297 298 299 299 300 300 300 299 299 299 299
335 335 334 334 334 334 334 336 338 338 337 336 336 336 335 334 334 335 336 336 336 335 334 333 332 331 330 329 328 326 325 324 321 318 316 316 312 305 300 298 297 297 298 299 299 299 300 299 299 299 299 299
334 334 335 334 332 333 333 335 336 337 337 336 335 335 334 334 334 334 335 335 335 335 334 333 332 330 329 328 327 326 325 324 322 319 316 316 315 308 302 298 297 297 298 299 300 299 300 299 299 299 299 300
333 334 335 334 333 333 333 335 336 336 336 335 334 334 333 333 334 334 334 334 335 334 334 333 331 329 328 327 327 326 325 324 323 320 317 316 315 310 305 300 296 297 298 299 300 299 299 299 298 299 299 299
331 333 334 334 334 334 334 334 335 335 335 334 334 333 333 333 333 334 333 334 334 334 333 332 330 329 328 327 326 326 325 324 323 321 317 315 314 310 307 303 298 297 298 299 299 299 299 298 297 298 299 299
330 332 333 334 335 334 334 334 334 335 334 334 333 333 332 332 332 333 333 333 334 333 332 331 330 329 328 327 326 326 325 324 323 321 318 316 315 312 309 306 301 297 298 298 298 299 298 297 297 297 298 298
329 331 333 334 334 334 334 334 335 334 334 334 333 333 333 332 332 332 333 333 333 333 332 331 330 329 328 327 326 325 325 324 322 320 318 317 317 315 311 310 306 300 298 299 298 298 297 297 297 297 297 298
329 331 332 334 334 334 334 334 334 334 334 334 333 334 333 333 332 332 333 333 333 332 332 330 330 329 328 327 326 325 324 323 322 320 318 317 318 317 314 312 309 303 299 299 299 298 297 297 297 297 297 298
330 331 332 333 333 333 333 333 333 333 334 334 334 334 333 333 332 332 332 332 333 332 332 330 329 329 328 327 326 325 324 323 321 319 317 316 317 318 316 314 309 302 300 300 299 297 296 297 297 297 297 297
330 331 331 332 332 332 332 332 332 331 332 332 332 332 332 332 332 332 332 332 332 332 331 331 330 329 328 327 326 324 323 322 321 318 316 315 316 317 316 314 308 302 301 300 298 297 296 297 297 296 296 296
329 330 330 330 330 330 330 330 331 330 330 330 330 331 331 331 331 331 331 331 331 331 330 330 329 329 327 326 326 324 323 321 320 318 316 316 316 316 315 313 308 302 300 299 298 297 297 297 296 296 295 296
327 327 328 328 328 328 328 328 329 329 329 329 329 329 329 329 329 329 330 330 330 329 329 328 328 327 326 325 325 324 323 321 320 318 317 317 316 315 314 312 309 305 301 299 298 297 297 296 296 295 295 295
325 325 325 326 326 326 326 326 327 327 327 327 327 327 327 327 327 327 328 328 328 328 327 327 326 326 326 325 324 323 322 321 319 318 318 317 316 314 313 311 310 306 302 299 298 298 297 296 295 295 295 295
322 323 323 323 324 323 323 323 323 323 324 324 324 324 324 324 325 325 326 326 326 326 325 325 325 325 324 324 323 322 322 321 320 319 318 317 316 314 311 309 306 304 301 299 298 297 297 296 296 296 296 296
318 319 319 320 320 320 319 320 320 320 320 320 320 320 320 321 321 322 322 323 323 323 323 323 323 323 323 323 322 321 321 321 320 319 319 317 315 313 310 307 304 302 299 298 297 296 296 296 296 296 296 296
315 315 316 317 317 317 317 316 316 316 315 315 316 316 316 317 318 319 319 319 318 318 318 318 319 319 319 320 320 320 319 318 318 318 317 315 313 311 309 307 305 301 299 297 296 296 296 296 296 296 296 296
311 311 313 313 313 313 312 311 311 311 310 310 311 310 310 311 312 313 314 315 315 315 314 314 315 315 315 316 315 316 315 315 315 315 315 314 312 309 306 304 303 301 299 298 297 295 296 298 298 297 296 295
308 309 310 310 309 310 309 308 308 308 307 306 306 304 304 305 305 306 307 309 310 311 311 311 311 311 312 312 312 312 312 311 312 312 312 312 311 308 304 302 301 300 299 298 297 296 296 295 296 299 297 294
307 307 307 307 307 307 306 305 305 304 304 303 303 302 302 302 302 302 302 304 304 306 307 308 308 308 309 309 309 309 309 309 309 309 309 309 308 306 304 303 301 300 298 297 298 297 297 295 296 301 298 293
305 305 305 305 304 303 302 301 300 300 301 302 302 302 302 302 302 301 301 301 301 302 302 303 304 305 306 306 306 306 307 307 307 307 307 307 306 305 304 303 300 299 299 298 297 296 297 296 297 299 297 295
303 303 302 302 301 300 299 298 298 299 300 300 301 301 301 301 302 301 301 301 301 300 300 300 301 301 302 303 303 304 304 305 305 305 305 305 305 304 304 303 299 299 299 298 297 296 296 296 296 296 295 297

ECMWFFLT2_925_thetae_033.txt.gz
Theta_e
338 338 338 338 336 336 337 336 336 335 336 338 338 338 336 334 335 337 337 337 337 337 336 335 334 332 332 331 331 331 330 330 328 327 326 326 326 318 305 298 298 298 299 299 299 300 300 301 301 301 304 308
338 338 337 338 337 336 336 336 335 335 336 337 337 337 336 335 337 338 338 338 337 337 337 335 334 333 332 332 331 330 328 329 329 327 326 325 325 320 306 298 298 298 299 299 299 300 301 301 301 301 303 306
338 338 337 337 337 336 337 335 334 334 335 336 336 336 335 335 336 338 338 338 338 337 337 336 334 333 333 332 331 329 326 326 328 327 326 325 324 321 309 299 298 298 299 299 300 300 300 300 301 301 302 303
339 339 338 337 338 337 337 336 334 334 335 335 335 334 334 335 336 337 337 337 337 337 336 336 334 333 333 333 331 329 326 325 327 326 325 325 324 322 311 299 297 298 298 299 299 300 300 300 300 300 301 301
338 339 339 338 338 338 338 337 335 335 335 334 334 333 333 334 335 335 336 337 338 337 337 336 334 333 333 332 331 329 327 324 325 325 325 324 323 321 311 299 297 298 298 299 299 299 300 300 300 300 301 300
337 338 339 339 339 338 338 337 336 336 335 334 333 332 333 334 334 334 335 336 337 337 337 336 335 334 333 332 331 329 327 325 324 324 323 323 321 319 311 301 297 298 298 299 299 299 300 300 300 300 300 300
337 338 338 339 339 339 338 338 337 336 336 334 333 333 333 334 334 334 334 334 336 337 336 336 336 334 333 333 331 329 328 326 324 323 322 322 320 314 308 302 297 297 298 298 299 299 300 300 300 300 300 300
337 337 338 338 338 338 338 338 337 337 336 335 335 334 334 334 335 334 334 333 334 336 336 335 335 335 334 333 331 329 328 326 324 323 322 322 321 313 305 301 297 297 298 298 299 298 299 300 300 300 300 300
338 337 338 338 338 338 338 338 338 337 337 336 336 336 335 334 335 335 334 334 334 335 336 336 336 335 334 332 330 328 327 326 324 323 322 322 320 316 307 300 297 297 297 298 298 298 299 299 300 300 299 300
337 337 337 338 339 338 337 338 339 338 336 336 336 336 336 336 335 335 334 335 335 334 335 336 336 335 334 332 329 327 327 327 325 323 322 321 319 317 310 302 298 297 297 297 297 298 299 299 299 299 299 299
336 336 336 336 337 339 337 336 338 340 338 336 337 336 336 335 335 334 334 335 335 334 335 335 335 335 334 332 330 328 328 327 326 324 323 321 320 318 312 304 298 297 297 297 297 298 299 299 299 299 299 298
335 335 335 335 336 337 338 336 336 339 340 338 337 337 338 336 335 334 334 334 334 333 335 336 335 335 334 332 331 330 329 328 327 325 323 322 320 318 314 308 300 297 297 297 297 298 299 299 299 299 299 298
333 333 334 334 334 334 336 337 334 334 338 339 337 336 337 336 334 333 333 334 334 332 334 336 335 335 334 332 331 330 329 329 327 326 324 323 321 319 317 313 306 298 296 297 297 298 299 299 299 299 299 298
332 332 333 333 334 334 333 335 334 332 333 337 338 337 337 336 335 333 333 333 333 332 332 335 336 335 334 332 331 330 329 329 327 326 325 323 322 321 318 317 312 303 296 297 297 298 299 299 299 298 299 299
330 331 332 333 333 334 333 333 333 333 331 332 335 337 337 337 336 334 333 332 333 332 332 334 335 334 333 332 331 330 329 328 327 326 325 324 323 321 319 317 316 309 300 297 298 299 299 299 299 298 298 298
330 330 331 332 333 333 334 333 332 332 332 332 332 334 334 334 334 333 333 333 333 333 332 333 333 333 332 332 331 330 329 328 327 326 325 324 322 321 320 318 317 314 305 298 298 299 300 299 299 298 297 298
330 331 331 332 333 333 333 334 333 332 332 333 333 333 332 332 332 332 332 332 333 333 333 332 332 333 332 332 331 330 329 327 326 325 325 324 323 321 320 318 317 315 311 303 299 299 299 300 299 298 297 297
330 331 332 332 332 333 333 333 334 334 334 333 333 333 333 333 333 332 332 331 331 332 332 331 331 332 331 331 331 329 328 327 326 325 325 324 323 321 320 318 317 316 314 309 306 302 300 300 299 299 297 296
330 331 331 332 332 333 333 333 333 334 334 334 334 334 333 333 332 332 332 331 331 331 331 331 331 331 331 331 330 328 327 326 326 325 324 323 322 321 319 318 317 316 315 313 311 307 302 300 300 299 297 296
329 330 331 331 331 331 331 331 332 333 333 334 333 333 333 332 332 331 331 331 331 331 330 330 330 331 331 330 329 328 327 326 325 325 324 323 322 320 319 317 316 316 315 314 313 309 303 300 300 299 297 296
328 329 329 329 328 329 329 329 330 330 331 331 331 331 331 331 330 330 330 330 330 330 330 330 330 330 331 330 329 328 327 326 325 324 323 322 321 320 318 316 315 315 314 314 313 309 303 300 300 298 297 297
326 326 326 326 326 326 326 325 326 326 326 326 326 327 327 327 328 328 327 327 327 327 327 328 328 328 328 327 327 327 326 325 324 324 323 322 321 319 318 316 316 315 315 314 312 308 304 301 299 298 297 297
324 324 324 324 324 323 322 321 321 321 321 321 322 323 323 324 324 324 325 324 324 324 323 323 324 323 323 323 323 323 323 323 323 323 322 321 320 319 318 317 316 316 314 313 311 308 304 301 299 298 297 297
322 322 321 321 321 319 318 317 317 317 316 315 316 316 317 319 319 320 321 321 321 321 321 320 320 320 319 319 319 319 319 318 319 319 319 319 318 317 317 317 316 315 312 310 307 305 303 301 299 298 297 297
319 318 318 317 316 314 313 313 314 313 312 311 311 312 313 313 313 315 316 317 317 318 318 318 317 317 317 317 317 317 316 316 316 316 316 315 315 315 315 315 314 312 308 304 302 302 300 299 298 298 297 297
314 314 314 313 311 310 310 309 308 307 307 307 308 309 309 308 308 309 310 310 311 313 314 314 315 315 315 315 315 315 315 315 315 314 314 313 311 311 310 310 310 309 306 301 299 298 297 298 298 297 297 297
310 309 310 309 308 308 306 304 304 303 303 304 305 304 304 304 304 305 305 305 306 307 308 309 310 310 311 312 312 312 312 312 313 312 312 311 309 307 306 306 306 306 304 301 299 297 297 299 298 298 297 296
306 306 307 306 305 305 304 303 303 303 302 302 302 302 302 302 302 302 302 302 302 303 304 305 305 306 307 308 308 309 309 310 309 309 309 309 309 307 305 305 304 304 302 300 300 298 297 296 295 298 298 294
306 306 306 305 305 304 303 303 302 302 301 301 301 301 301 301 301 301 300 300 300 300 301 301 302 302 303 304 305 306 307 307 306 305 305 305 305 306 305 304 303 302 301 300 300 298 298 297 298 300 297 294
305 304 304 304 303 302 300 299 298 297 298 298 299 299 299 299 300 300 300 300 300 299 300 299 300 300 300 301 301 302 303 304 304 303 303 302 302 302 303 303 302 302 302 301 300 298 297 298 299 298 296 296
302 302 301 301 300 299 298 296 295 296 297 297 298 298 298 298 299 299 299 299 299 299 299 299 299 299 299 299 299 299 300 300 301 301 301 301 301 300 300 300 300 300 301 301 300 300 299 298 297 296 295 296

ECMWFFLT2_925_thetae_036.txt.gz
Theta_e
339 339 339 339 339 339 337 336 337 337 336 335 337 338 338 337 335 334 336 337 337 338 337 336 334 332 332 331 331 331 330 329 328 329 326 327 325 325 323 307 297 298 298 299 299 300 301 301 301 302 303 306
338 339 339 339 339 338 337 336 336 337 336 335 336 338 338 337 335 334 335 336 336 337 337 336 335 333 332 332 331 331 330 328 328 329 328 327 326 325 322 310 299 298 298 298 299 300 300 301 301 301 303 305
337 339 339 338 339 338 337 336 336 336 336 335 336 337 337 337 336 334 335 336 336 337 337 336 335 334 332 332 331 331 330 327 326 328 328 327 326 325 323 314 303 297 298 298 299 299 300 300 300 301 301 303
338 339 339 338 338 338 338 336 336 336 336 335 335 336 336 337 335 333 334 336 336 336 336 336 336 334 333 332 330 331 330 327 326 326 326 326 325 325 323 317 305 297 298 298 299 299 299 300 300 300 301 301
338 338 339 339 338 338 338 337 336 336 335 335 335 336 336 336 335 333 334 335 335 335 335 336 335 335 334 332 330 330 329 328 327 325 324 324 324 323 320 316 306 298 297 298 298 298 299 299 299 300 300 300
337 337 338 339 338 337 337 337 337 336 335 334 334 336 335 336 334 333 333 334 335 335 335 335 334 334 333 332 331 330 329 329 327 325 324 323 322 321 318 315 307 298 297 297 298 298 299 299 299 299 299 300
335 336 336 338 339 338 337 337 338 337 336 335 335 335 335 335 334 333 333 333 334 335 335 335 334 333 333 333 332 331 330 328 326 325 325 324 322 321 318 315 307 299 297 297 298 298 298 299 299 299 299 299
336 335 335 336 338 339 338 338 338 338 337 336 335 335 334 333 333 332 332 332 333 334 336 336 334 334 334 333 332 331 330 328 326 325 324 324 323 322 320 315 307 298 297 297 297 298 298 299 299 299 299 299
336 336 335 336 336 337 338 339 339 338 338 338 337 336 335 333 332 332 333 333 331 332 333 335 336 335 333 333 332 331 329 327 325 324 324 325 324 323 322 318 311 300 297 297 297 298 298 299 299 300 299 300
337 335 335 336 336 336 336 337 338 338 337 337 338 337 335 334 334 333 333 334 333 332 330 330 334 336 333 333 333 330 329 328 325 324 324 325 325 324 322 321 317 306 298 297 297 297 298 299 299 299 299 299
336 335 335 336 336 337 337 337 336 336 336 336 336 337 336 335 335 334 334 335 335 334 332 329 331 332 332 332 333 331 330 330 328 325 325 326 325 324 323 321 320 313 302 296 297 297 297 298 298 298 299 299
336 335 334 335 335 336 336 339 337 334 334 335 336 335 334 334 334 334 334 334 334 333 334 334 332 331 331 331 332 332 331 330 329 327 325 326 325 324 323 322 321 318 310 301 297 296 297 297 298 298 297 298
334 334 334 334 335 335 334 336 338 337 334 332 335 335 335 333 332 333 332 332 334 333 333 334 332 330 331 330 330 330 329 330 330 327 325 326 326 325 324 323 322 320 317 311 302 296 296 297 298 298 297 297
333 333 333 333 333 335 334 332 333 336 336 332 331 333 335 335 334 334 332 331 331 332 333 334 332 329 329 330 330 329 329 330 329 328 327 327 327 325 324 323 322 321 319 317 310 300 296 297 298 298 298 297
331 332 332 332 332 332 332 332 331 331 336 335 331 330 331 334 334 335 334 331 330 330 332 333 332 330 328 328 330 330 330 330 328 328 328 328 327 325 324 323 322 321 319 318 315 307 299 296 298 299 298 298
330 331 331 331 331 331 331 331 331 330 333 334 332 330 329 331 333 333 332 332 331 330 330 330 330 330 329 328 330 331 331 329 329 329 328 327 326 325 324 323 322 321 320 318 317 313 306 299 297 298 299 299
330 330 330 331 331 332 331 331 331 331 331 332 331 330 330 330 331 331 331 331 331 330 330 329 330 331 330 330 330 331 331 330 329 329 328 327 326 326 325 324 323 321 320 319 317 316 312 305 301 299 299 299
329 329 330 331 331 331 331 332 331 331 332 331 331 331 331 331 331 331 332 331 331 330 330 329 329 331 330 329 329 329 329 329 329 329 328 327 326 326 325 324 323 321 320 318 317 316 314 312 309 306 302 300
329 330 330 331 331 330 330 330 329 330 330 330 331 331 331 331 331 331 332 331 331 330 330 330 330 331 330 328 328 328 329 329 329 328 327 327 326 325 325 324 323 321 319 318 316 315 314 313 312 311 307 302
328 329 329 329 328 328 328 327 325 324 325 326 326 327 327 328 328 329 329 330 330 329 328 328 328 328 328 329 328 328 328 328 328 327 327 326 326 325 324 324 322 320 319 318 316 315 314 313 312 311 307 303
327 327 327 326 325 326 325 324 323 321 322 322 321 322 322 322 323 324 324 325 326 325 325 324 323 324 325 325 324 324 324 324 324 323 323 323 323 323 322 322 322 319 318 317 316 315 314 314 313 310 308 305
324 324 324 323 322 322 321 321 320 320 321 320 319 319 319 319 320 321 321 322 322 322 321 321 321 321 322 322 321 321 320 320 320 320 319 319 319 319 319 320 319 318 317 316 316 316 315 314 313 311 310 307
321 322 321 320 320 319 317 317 317 317 318 316 316 316 316 318 319 319 319 319 319 319 319 319 319 318 318 319 319 319 319 318 318 318 318 317 316 316 317 317 317 316 315 314 315 315 314 313 312 311 310 308
320 319 318 317 317 314 311 311 311 311 311 310 311 311 312 314 314 314 315 315 315 316 316 316 315 316 316 316 316 316 316 316 315 316 316 315 316 315 315 315 314 314 312 312 312 312 311 310 309 308 307 306
317 316 315 313 310 307 306 307 308 307 307 307 307 308 310 309 309 310 310 310 311 313 313 313 313 314 314 314 314 313 312 312 312 313 313 313 313 313 313 312 311 310 309 307 307 307 306 306 306 305 304 304
313 312 311 309 306 304 304 304 304 304 303 303 305 306 307 307 306 307 307 307 308 309 309 309 310 310 310 311 311 311 311 311 311 311 310 310 310 310 310 309 308 307 306 304 302 300 300 303 304 303 303 304
308 307 307 306 304 304 303 301 301 301 300 301 302 302 302 302 302 303 304 304 304 305 304 304 305 305 306 307 308 309 310 310 310 309 308 308 308 308 307 306 306 305 304 303 301 299 300 300 299 302 303 300
305 304 304 303 302 301 301 299 300 300 300 300 300 300 300 299 300 300 300 300 301 301 301 301 302 302 303 303 304 305 305 306 306 305 305 305 305 304 304 304 303 303 303 302 302 301 300 297 297 302 301 296
304 303 303 302 301 301 301 300 300 299 298 298 298 298 298 298 298 299 299 299 299 299 299 299 299 300 300 300 300 301 301 301 301 301 302 302 302 301 301 301 301 301 301 301 301 300 299 298 300 302 299 295
303 303 302 302 301 300 298 295 294 293 294 295 295 295 295 296 296 297 298 298 298 298 298 298 298 298 298 298 298 298 298 298 298 299 299 299 300 300 299 300 300 299 299 299 300 299 298 299 299 298 296 296
302 302 301 300 299 297 295 291 289 290 291 291 292 292 292 292 293 294 295 295 296 296 297 297 297 297 297 297 297 297 297 297 297 297 297 297 298 298 298 299 299 298 298 298 298 298 297 297 297 296 295 295

ECMWFFLT2_925_thetae_042.txt.gz
Theta_e
338 338 338 338 338 339 339 339 339 338 336 336 336 336 336 336 336 335 336 336 336 337 336 335 333 332 334 333 332 331 331 329 328 327 326 326 326 325 324 322 321 314 300 298 300 300 301 300 303 303 307 319
338 338 337 338 338 338 339 339 339 338 337 335 335 336 336 336 336 336 335 336 336 336 336 335 334 332 333 333 332 330 330 329 327 326 325 325 324 323 323 320 319 316 303 297 300 299 301 300 301 301 303 313
338 338 337 337 337 338 338 339 339 338 336 335 336 335 335 336 336 336 336 336 336 335 336 335 334 333 333 333 331 330 329 329 327 326 325 323 323 323 324 321 317 314 304 297 299 299 299 299 300 300 304 307
338 338 337 337 337 337 337 338 338 338 337 335 336 336 335 336 335 335 335 335 335 333 334 335 334 333 333 334 331 330 330 329 327 326 325 322 322 323 324 323 318 312 305 298 297 298 299 299 300 301 304 303
338 338 337 337 337 336 336 337 337 337 337 336 334 335 335 335 333 333 333 333 334 333 333 334 335 333 331 334 332 330 331 330 328 327 326 323 322 322 323 324 321 314 305 299 297 298 299 299 299 300 300 302
337 338 337 337 337 336 336 336 336 335 336 335 335 334 333 334 333 332 333 333 334 333 332 332 334 333 331 333 332 331 331 330 329 328 326 325 322 320 322 323 323 319 310 301 297 298 298 298 299 299 298 300
337 337 337 338 337 336 336 335 335 335 335 335 335 335 334 334 334 333 333 334 333 332 332 332 331 332 331 330 331 331 331 329 329 328 327 327 322 318 321 323 323 323 318 307 299 297 298 299 298 299 299 298
336 336 336 337 336 336 336 336 334 335 335 335 335 334 334 334 334 333 334 334 332 331 332 332 330 331 332 331 331 330 330 330 329 328 328 327 323 320 321 323 324 323 322 316 305 298 297 298 298 299 299 298
335 335 336 336 336 335 335 336 335 335 334 334 334 331 331 332 332 332 333 334 332 331 332 332 331 332 333 332 332 331 330 330 328 328 328 327 324 322 322 323 324 323 323 321 315 307 300 297 297 298 299 298
335 334 335 336 336 335 334 335 336 336 334 334 333 332 332 332 332 333 333 334 333 333 332 332 332 332 332 332 332 331 331 330 329 329 328 327 324 323 324 323 323 323 323 322 321 317 311 304 299 297 298 298
334 334 335 334 334 334 334 334 334 334 334 335 334 333 335 335 335 334 333 333 333 333 333 332 332 331 331 331 331 331 331 330 329 329 329 327 326 324 324 324 322 322 323 323 322 320 318 314 306 298 296 297
333 334 334 333 332 333 333 333 333 333 333 334 334 333 334 335 334 334 333 332 332 332 332 331 331 331 331 330 330 330 329 329 329 329 328 327 327 326 325 325 322 321 323 323 322 321 319 317 313 305 298 296
333 333 333 331 332 333 332 333 332 332 332 332 333 334 334 332 331 332 333 333 332 332 331 331 331 331 330 329 330 329 328 329 329 329 328 328 328 327 326 325 322 321 323 322 321 320 319 318 316 312 305 299
333 332 332 331 334 333 331 333 333 331 331 331 332 333 332 331 330 331 332 333 333 332 331 331 332 331 330 329 330 329 328 328 328 328 329 328 328 327 327 325 322 321 323 322 320 319 318 317 316 315 312 307
333 332 333 333 333 331 330 331 330 330 330 330 331 331 331 330 330 331 331 332 333 333 333 333 333 331 330 329 330 329 328 328 328 328 328 328 328 327 326 325 322 322 322 321 320 319 318 317 315 314 314 312
332 331 332 332 330 329 330 330 329 329 330 329 329 329 330 329 330 331 331 330 331 332 333 332 330 329 329 329 329 329 328 328 327 327 327 327 326 325 324 324 323 322 321 321 321 319 318 317 316 314 313 312
329 329 330 330 328 328 328 329 328 327 328 327 327 328 328 328 329 330 330 330 330 330 330 330 328 327 328 328 328 328 327 327 326 326 325 325 325 324 322 321 322 322 321 320 321 320 318 317 316 315 314 314
328 328 327 327 326 326 326 327 326 325 325 325 325 326 327 327 327 328 329 329 329 329 328 328 327 327 327 327 326 327 326 326 325 325 324 324 323 323 321 320 321 322 321 321 321 320 319 317 316 316 315 315
326 326 325 325 325 325 325 325 324 323 323 323 324 324 325 326 326 326 326 327 327 327 327 326 325 325 325 325 325 325 325 325 325 324 323 322 321 320 320 320 320 320 320 320 320 319 318 317 317 316 316 315
324 324 324 324 323 322 322 321 321 321 321 322 322 322 322 323 323 324 324 324 324 325 325 324 323 323 323 323 323 323 323 323 323 322 321 321 320 320 320 319 319 319 319 319 319 319 318 317 317 316 316 315
322 322 322 321 320 320 320 319 319 318 319 319 319 320 320 320 320 320 321 321 322 322 322 322 321 321 321 320 320 320 320 320 320 319 318 318 318 319 319 318 317 317 317 318 318 318 317 317 317 317 316 315
320 320 319 318 317 317 317 317 316 315 316 316 316 317 316 317 317 317 317 318 319 319 318 318 318 317 317 317 317 318 317 317 317 316 316 316 316 316 316 316 315 315 315 315 316 316 316 316 316 316 315 314
317 317 316 314 313 313 313 312 312 312 312 311 312 312 312 313 313 314 314 314 315 315 314 314 314 314 314 314 314 314 314 314 314 314 314 314 314 313 313 312 311 311 312 312 313 313 313 314 314 314 313 311
313 313 312 311 311 310 308 308 308 308 308 308 308 308 309 309 310 310 311 311 312 312 312 311 311 311 311 311 311 311 310 310 310 310 310 310 310 310 309 308 307 308 309 309 310 310 310 311 311 311 310 308
310 309 308 307 307 305 303 303 304 304 304 304 304 304 304 305 305 306 306 307 308 308 307 307 307 307 307 306 306 306 305 305 306 307 307 307 307 307 305 304 304 305 307 308 308 309 309 309 309 309 307 304
310 307 306 305 304 302 300 300 301 300 300 300 300 300 301 301 301 301 302 302 302 303 302 302 302 303 303 302 302 302 302 302 303 304 305 305 306 305 304 303 302 303 305 305 306 307 308 309 308 307 304 303
310 308 306 305 302 301 299 298 299 298 298 298 299 299 299 299 299 299 299 300 300 300 300 300 300 299 300 300 299 299 299 300 300 300 301 302 304 304 304 302 301 301 302 302 304 306 308 308 307 307 305 303
308 307 305 303 301 299 299 297 297 298 297 298 298 298 298 298 298 298 298 298 298 298 298 298 297 297 297 297 297 297 297 297 297 297 298 299 300 302 303 302 301 300 300 300 302 304 305 306 307 307 305 303
304 303 301 300 298 298 297 295 295 295 295 294 295 294 294 294 294 294 294 294 294 294 294 294 293 294 294 294 294 293 293 294 294 295 295 296 297 298 300 301 300 299 299 299 299 301 302 304 305 304 302 302
301 300 298 297 296 295 293 292 291 290 289 289 289 289 289 290 289 289 289 289 289 289 289 289 289 289 289 289 289 289 289 290 290 291 291 292 293 294 297 298 297 298 298 297 297 298 299 300 301 300 300 301
300 300 298 297 295 293 291 289 288 287 287 286 286 286 287 287 287 287 287 287 287 287 287 287 287 287 287 287 287 287 287 287 287 287 288 288 288 289 291 293 294 295 296 295 295 296 297 297 298 299 299 299

ECMWFFLT2_925_thetae_048.txt.gz
Theta_e
340 340 340 341 341 341 341 340 339 338 338 338 337 337 336 336 336 336 336 336 336 335 334 333 333 333 333 332 331 330 329 329 326 324 323 319 316 312 309 307 300 299 300 301 301 301 302 311 318 320 321 322
338 339 340 340 340 340 340 340 339 338 338 337 336 335 335 334 334 335 335 335 335 335 334 334 333 333 334 332 330 330 330 329 327 327 324 319 317 314 309 305 300 298 300 300 301 301 301 304 308 311 315 318
336 337 338 339 339 339 339 339 339 338 337 336 334 332 332 332 332 334 334 334 334 334 335 334 333 333 333 333 331 330 330 329 329 328 325 320 317 316 312 307 302 299 299 300 300 301 301 302 302 304 309 313
338 337 337 337 337 338 338 338 339 338 337 336 334 331 331 330 330 331 332 333 333 333 334 333 333 332 333 332 331 330 330 329 329 328 326 322 318 317 315 312 306 300 299 299 300 301 301 301 301 302 304 305
340 339 338 337 336 337 336 336 337 337 336 334 334 332 331 330 330 331 332 333 333 333 334 333 333 332 332 331 331 330 329 329 329 328 327 324 321 319 318 316 313 306 300 299 299 300 301 301 301 301 301 301
340 340 339 338 337 336 336 336 336 335 335 334 334 333 331 330 332 335 335 335 334 334 334 333 332 332 332 331 331 330 329 329 328 328 327 325 324 322 320 319 317 313 308 302 299 300 300 301 301 301 301 301
338 339 338 338 338 337 336 336 336 335 335 335 335 334 333 332 335 336 336 335 335 335 334 333 332 332 332 331 331 330 329 329 328 328 326 325 325 323 321 320 318 317 316 310 304 301 299 300 301 300 300 301
337 338 338 339 339 338 338 337 337 336 337 337 337 336 335 335 336 336 336 336 335 334 334 333 332 332 332 331 331 330 330 330 328 328 327 325 325 324 322 320 319 318 318 316 313 308 302 299 300 300 300 300
336 337 337 338 339 338 338 338 338 338 338 338 338 338 336 336 336 336 336 335 335 334 333 333 332 331 331 331 331 331 331 330 329 329 328 326 325 324 323 321 320 319 318 317 318 316 310 304 300 300 300 300
336 336 337 338 337 338 337 338 338 338 337 337 337 337 336 336 336 336 336 335 335 334 333 333 332 332 331 331 331 332 331 330 329 329 328 326 325 325 324 322 320 320 319 317 317 316 315 310 306 303 301 299
335 335 336 337 337 337 337 337 338 336 336 336 336 336 336 336 336 335 335 335 335 334 333 333 332 332 332 330 330 331 331 330 330 330 329 327 326 326 325 322 320 320 318 318 317 315 315 312 310 308 305 302
334 335 336 337 336 336 336 336 336 335 334 335 335 335 335 335 334 334 335 334 334 334 333 333 332 332 332 331 330 330 330 330 330 329 329 327 326 326 325 323 321 320 318 318 317 316 314 312 312 310 308 306
333 335 336 336 335 335 335 335 334 334 334 335 334 334 333 333 333 333 332 333 334 334 333 333 332 332 332 331 331 330 330 330 329 329 328 327 326 325 325 323 322 321 320 319 318 317 316 313 312 311 310 309
334 335 335 335 334 334 333 333 333 333 333 333 333 333 332 331 331 331 331 332 333 333 333 333 333 332 331 331 331 330 330 329 329 328 328 327 327 326 326 324 322 321 321 320 320 319 318 315 314 312 312 311
333 334 334 333 333 332 332 332 331 331 331 331 331 331 331 330 330 330 330 331 333 333 333 333 332 332 331 330 330 329 329 329 328 328 328 327 326 326 326 324 322 321 321 320 320 320 320 317 316 314 314 313
332 332 331 331 331 330 330 330 330 329 329 329 329 329 329 329 329 329 329 330 332 332 332 332 331 331 330 329 329 329 329 328 328 327 326 327 326 326 325 324 323 322 321 321 320 320 320 318 317 316 315 314
331 330 330 329 329 328 328 328 328 327 327 327 327 328 327 327 327 328 328 328 329 330 330 329 329 329 328 327 327 327 327 326 326 326 325 325 324 324 324 323 323 322 321 321 320 320 319 318 317 317 316 316
329 328 328 328 328 327 327 326 326 324 324 325 326 327 327 326 326 325 325 326 327 327 327 327 326 326 326 325 325 325 325 325 325 324 324 324 323 323 323 322 321 322 321 321 320 320 319 318 317 317 316 315
327 327 327 327 327 326 325 325 324 324 324 325 325 325 325 325 324 323 323 323 324 325 325 325 324 323 322 323 324 323 323 323 323 322 322 322 321 321 321 320 320 320 320 320 320 320 320 318 317 317 316 314
326 326 326 325 324 323 323 323 323 322 322 323 323 323 322 321 321 321 320 321 322 323 322 322 321 319 319 320 320 320 320 320 319 319 319 318 318 318 317 316 315 315 315 316 317 317 318 317 316 315 314 312
325 324 323 322 321 321 321 321 320 319 319 319 319 319 318 317 317 318 318 318 319 319 318 318 317 316 316 317 317 317 316 315 314 314 314 313 312 312 311 310 309 309 310 312 312 313 313 314 313 312 311 310
322 321 320 319 318 318 318 317 316 315 316 316 316 315 314 313 313 313 314 314 315 315 314 314 313 313 313 314 314 314 312 311 310 310 310 309 308 307 306 305 305 306 308 310 310 311 312 312 311 310 309 307
319 318 317 316 315 315 315 313 312 313 313 313 313 313 312 312 311 310 310 310 310 311 310 310 310 310 310 310 311 311 310 309 308 308 308 307 305 302 301 302 302 305 308 308 308 310 311 311 310 309 306 306
315 314 312 312 312 311 309 309 310 311 311 311 311 311 312 312 311 310 309 308 308 308 307 306 305 306 306 306 307 307 307 307 307 307 306 305 302 298 297 298 300 304 306 305 307 309 311 310 308 305 304 305
311 309 308 308 307 306 305 306 308 308 308 309 309 310 310 310 309 309 309 307 306 306 305 303 302 301 301 302 303 303 304 304 306 306 305 305 303 298 294 293 296 299 301 303 305 307 309 308 305 303 302 304
308 307 308 307 306 305 304 304 305 304 304 305 305 305 306 306 306 306 305 304 303 302 301 300 299 297 297 297 298 299 300 303 305 305 304 303 302 300 297 293 293 295 297 300 301 303 306 307 305 303 301 301
308 307 309 309 307 306 303 301 301 301 300 301 301 301 301 301 301 301 301 300 300 299 297 296 295 293 293 293 293 294 294 297 299 301 301 300 298 298 298 295 292 292 294 296 298 301 306 307 306 305 300 297
309 308 308 307 305 303 301 298 298 298 298 298 298 298 298 298 297 297 297 296 296 295 294 293 292 291 291 290 290 290 290 291 291 293 295 295 294 294 294 294 292 291 292 293 296 300 303 303 304 305 299 296
309 309 306 302 300 299 297 296 296 296 295 295 295 294 294 293 293 293 293 292 292 291 291 291 290 290 290 289 289 289 289 289 289 289 290 291 291 291 291 291 291 290 290 291 293 295 299 301 302 301 297 296
308 307 303 299 297 296 294 293 293 292 291 291 291 290 290 290 290 290 290 290 290 290 289 289 289 289 289 288 288 288 288 288 288 288 288 288 289 289 289 289 288 289 288 289 290 290 293 295 296 297 295 296
305 303 300 298 296 294 293 291 290 289 289 289 289 289 289 289 289 289 289 289 288 288 288 288 288 288 288 288 287 287 287 287 287 287 287 287 287 287 287 287 287 288 288 287 288 288 289 289 289 291 293 293